Time,TemperatureF,DewpointF,PressureIn,WindDirection,WindDirectionDegrees,WindSpeedMPH,WindSpeedGustMPH,Humidity,HourlyPrecipIn,Conditions,Clouds,dailyrainin,SoftwareType,DateUTC
2013-07-20 00:01:00,52.0,35.0,-100.00,West,273,0.0,1.0,53,0.00,,,0.00,,2013-07-20 06:01:00,
2013-07-20 00:43:00,51.0,34.0,-100.00,West,273,0.0,0.0,52,0.00,,,0.00,,2013-07-20 06:43:00,
2013-07-20 01:33:00,48.0,33.0,-100.00,West,273,0.0,1.0,55,0.00,,,0.00,,2013-07-20 07:33:00,
2013-07-20 01:44:00,48.0,33.0,-100.00,West,273,0.0,0.0,55,0.00,,,0.00,,2013-07-20 07:44:00,
2013-07-20 01:53:00,47.0,32.0,-100.00,West,273,0.0,1.0,56,0.00,,,0.00,,2013-07-20 07:53:00,
2013-07-20 02:01:00,47.0,33.0,-100.00,West,273,0.0,0.0,58,0.00,,,0.00,,2013-07-20 08:01:00,
2013-07-20 02:52:00,45.0,32.0,-100.00,West,273,0.0,1.0,60,0.00,,,0.00,,2013-07-20 08:52:00,
2013-07-20 03:01:00,45.0,32.0,-100.00,West,273,0.0,0.0,60,0.00,,,0.00,,2013-07-20 09:01:00,
2013-07-20 03:43:00,43.0,31.0,-100.00,West,273,0.0,0.0,63,0.00,,,0.00,,2013-07-20 09:43:00,
2013-07-20 03:53:00,43.0,31.0,-100.00,West,273,0.0,0.0,63,0.00,,,0.00,,2013-07-20 09:53:00,
2013-07-20 04:11:00,43.0,32.0,-100.00,West,273,0.0,2.0,64,0.00,,,0.00,,2013-07-20 10:11:00,
2013-07-20 04:32:00,41.0,30.0,-100.00,West,273,0.0,0.0,65,0.00,,,0.00,,2013-07-20 10:32:00,
2013-07-20 04:42:00,41.0,31.0,-100.00,West,273,0.0,1.0,66,0.00,,,0.00,,2013-07-20 10:42:00,
2013-07-20 04:52:00,41.0,31.0,-100.00,West,273,0.0,1.0,66,0.00,,,0.00,,2013-07-20 10:52:00,
2013-07-20 05:01:00,41.0,31.0,-100.00,West,273,0.0,0.0,66,0.00,,,0.00,,2013-07-20 11:01:00,
2013-07-20 05:11:00,41.0,31.0,-100.00,West,273,0.0,0.0,67,0.00,,,0.00,,2013-07-20 11:11:00,
2013-07-20 05:21:00,41.0,31.0,-100.00,West,273,0.0,0.0,67,0.00,,,0.00,,2013-07-20 11:21:00,
2013-07-20 05:43:00,40.0,31.0,-100.00,West,273,0.0,1.0,69,0.00,,,0.00,,2013-07-20 11:43:00,
2013-07-20 05:52:00,40.0,31.0,-100.00,West,273,0.0,1.0,69,0.00,,,0.00,,2013-07-20 11:52:00,
2013-07-20 06:32:00,39.0,30.0,-100.00,West,273,0.0,1.0,71,0.00,,,0.00,,2013-07-20 12:32:00,
2013-07-20 06:52:00,39.0,30.0,-100.00,West,273,0.0,1.0,71,0.00,,,0.00,,2013-07-20 12:52:00,
2013-07-20 07:01:00,39.0,30.0,-100.00,West,273,0.0,1.0,71,0.00,,,0.00,,2013-07-20 13:01:00,
2013-07-20 07:11:00,39.0,31.0,-100.00,West,273,0.0,0.0,72,0.00,,,0.00,,2013-07-20 13:11:00,
2013-07-20 07:22:00,41.0,32.0,-100.00,West,273,0.0,0.0,71,0.00,,,0.00,,2013-07-20 13:22:00,
2013-07-20 07:52:00,47.0,34.0,-100.00,West,273,0.0,1.0,61,0.00,,,0.00,,2013-07-20 13:52:00,
2013-07-20 08:32:00,56.0,37.0,-100.00,West,273,0.0,1.0,48,0.00,,,0.00,,2013-07-20 14:32:00,
2013-07-20 10:52:00,74.0,34.0,-100.00,SW,223,0.0,3.0,23,0.00,,,0.00,,2013-07-20 16:52:00,
2013-07-20 11:22:00,76.0,32.0,-100.00,SSW,202,1.0,4.0,20,0.00,,,0.00,,2013-07-20 17:22:00,
2013-07-20 12:32:00,83.0,31.0,-100.00,East,95,1.0,3.0,15,0.00,,,0.00,,2013-07-20 18:32:00,
2013-07-20 12:43:00,81.0,31.0,-100.00,ESE,119,5.0,8.0,16,0.00,,,0.00,,2013-07-20 18:43:00,
2013-07-20 14:32:00,81.0,22.0,-100.00,WNW,283,10.0,19.0,11,0.00,,,0.00,,2013-07-20 20:32:00,
2013-07-20 16:52:00,83.0,18.0,-100.00,WSW,254,2.0,9.0,9,0.00,,,0.00,,2013-07-20 22:52:00,
2013-07-20 17:33:00,84.0,19.0,-100.00,West,277,7.0,13.0,9,0.00,,,0.00,,2013-07-20 23:33:00,
2013-07-20 17:43:00,84.0,19.0,-100.00,WSW,257,5.0,12.0,9,0.00,,,0.00,,2013-07-20 23:43:00,
2013-07-20 17:53:00,86.0,21.0,-100.00,SSE,159,2.0,9.0,9,0.00,,,0.00,,2013-07-20 23:53:00,
2013-07-20 18:02:00,86.0,21.0,-100.00,NW,312,4.0,12.0,9,0.00,,,0.00,,2013-07-21 00:02:00,
2013-07-20 19:01:00,83.0,23.0,-100.00,West,281,5.0,8.0,11,0.00,,,0.00,,2013-07-21 01:01:00,
2013-07-20 19:11:00,83.0,23.0,-100.00,WSW,237,1.0,8.0,11,0.00,,,0.00,,2013-07-21 01:11:00,
2013-07-20 19:32:00,83.0,25.0,-100.00,West,275,2.0,8.0,12,0.00,,,0.00,,2013-07-21 01:32:00,
2013-07-20 19:43:00,-999.0,-99.9,-100.00,WSW,242,2.0,6.0,-999,0.00,,,-99.99,,2013-07-21 01:43:00,
2013-07-20 19:52:00,82.0,24.0,-100.00,WNW,298,1.0,6.0,12,0.00,,,0.00,,2013-07-21 01:52:00,
2013-07-20 20:01:00,82.0,24.0,-100.00,West,259,2.0,8.0,12,0.00,,,0.00,,2013-07-21 02:01:00,
2013-07-20 20:11:00,81.0,26.0,-100.00,WSW,253,0.0,6.0,13,0.00,,,0.00,,2013-07-21 02:11:00,
2013-07-20 20:22:00,80.0,33.0,-100.00,WSW,253,0.0,1.0,18,0.00,,,0.00,,2013-07-21 02:22:00,
2013-07-20 20:32:00,79.0,33.0,-100.00,WSW,253,0.0,0.0,19,0.00,,,0.00,,2013-07-21 02:32:00,
2013-07-20 20:42:00,76.0,33.0,-100.00,WSW,252,0.0,0.0,21,0.00,,,0.00,,2013-07-21 02:42:00,
2013-07-20 21:02:00,70.0,36.0,-100.00,WSW,253,0.0,1.0,29,0.00,,,0.00,,2013-07-21 03:02:00,
2013-07-20 21:11:00,69.0,36.0,-100.00,WSW,253,0.0,0.0,30,0.00,,,0.00,,2013-07-21 03:11:00,
2013-07-20 21:43:00,64.0,37.0,-100.00,WSW,252,0.0,0.0,36,0.00,,,0.00,,2013-07-21 03:43:00,
2013-07-20 22:01:00,61.0,35.0,-100.00,WSW,252,0.0,0.0,38,0.00,,,0.00,,2013-07-21 04:01:00,
2013-07-20 22:11:00,59.0,33.0,-100.00,WSW,252,0.0,0.0,38,0.00,,,0.00,,2013-07-21 04:11:00,
2013-07-20 22:32:00,57.0,34.0,-100.00,WSW,253,0.0,0.0,42,0.00,,,0.00,,2013-07-21 04:32:00,
2013-07-20 22:43:00,56.0,34.0,-100.00,WSW,253,0.0,1.0,44,0.00,,,0.00,,2013-07-21 04:43:00,
2013-07-20 22:53:00,56.0,36.0,-100.00,WSW,252,0.0,1.0,46,0.00,,,0.00,,2013-07-21 04:53:00,
2013-07-20 23:01:00,55.0,35.0,-100.00,WSW,252,0.0,1.0,47,0.00,,,0.00,,2013-07-21 05:01:00,
2013-07-20 23:11:00,55.0,35.0,-100.00,WSW,252,0.0,1.0,47,0.00,,,0.00,,2013-07-21 05:11:00,
2013-07-20 23:32:00,54.0,36.0,-100.00,WSW,253,0.0,1.0,50,0.00,,,0.00,,2013-07-21 05:32:00,
2013-07-20 23:42:00,53.0,35.0,-100.00,WSW,253,0.0,1.0,51,0.00,,,0.00,,2013-07-21 05:42:00,
2013-07-20 23:52:00,52.0,35.0,-100.00,WSW,252,0.0,0.0,52,0.00,,,0.00,,2013-07-21 05:52:00,